TimeEST,TemperatureF,Dew PointF,Humidity,Sea Level PressureIn,VisibilityMPH,Wind Direction,Wind SpeedMPH,Gust SpeedMPH,PrecipitationIn,Events,Conditions,WindDirDegrees,DateUTC
12:55 AM,36.7,31.8,83,30.39,10.0,NE,3.5,-,N/A,,Mostly Cloudy,40,2013-01-08 05:55:00
1:44 AM,41.0,33.8,76,30.38,10.0,NE,5.8,-,N/A,,Mostly Cloudy,40,2013-01-08 06:44:00
1:55 AM,40.5,33.1,75,30.38,10.0,NE,5.8,-,N/A,,Mostly Cloudy,40,2013-01-08 06:55:00
2:01 AM,41.0,33.8,76,30.38,10.0,NE,6.9,-,N/A,,Overcast,40,2013-01-08 07:01:00
2:13 AM,41.0,33.8,76,30.38,10.0,NNE,5.8,-,N/A,,Overcast,30,2013-01-08 07:13:00
2:55 AM,41.2,33.8,75,30.37,10.0,NE,6.9,-,N/A,,Overcast,40,2013-01-08 07:55:00
3:25 AM,41.0,33.8,76,30.37,10.0,NE,3.5,-,N/A,,Overcast,40,2013-01-08 08:25:00
3:55 AM,41.2,34.3,77,30.37,10.0,NE,4.6,-,N/A,,Overcast,40,2013-01-08 08:55:00
4:55 AM,41.5,34.7,77,30.37,10.0,Calm,Calm,-,N/A,,Overcast,0,2013-01-08 09:55:00
5:55 AM,42.3,35.1,76,30.37,10.0,NE,3.5,-,N/A,,Overcast,40,2013-01-08 10:55:00
6:55 AM,43.5,34.7,71,30.39,10.0,NE,6.9,-,N/A,,Overcast,50,2013-01-08 11:55:00
7:55 AM,44.6,34.3,67,30.41,10.0,NE,6.9,-,N/A,,Mostly Cloudy,50,2013-01-08 12:55:00
8:55 AM,45.1,34.3,66,30.41,10.0,ENE,9.2,-,N/A,,Mostly Cloudy,60,2013-01-08 13:55:00
9:19 AM,46.4,35.6,66,30.42,10.0,ENE,10.4,-,N/A,,Mostly Cloudy,70,2013-01-08 14:19:00
9:55 AM,49.8,35.6,58,30.42,10.0,ENE,8.1,-,N/A,,Mostly Cloudy,70,2013-01-08 14:55:00
10:55 AM,52.7,37.2,56,30.43,10.0,ENE,6.9,-,N/A,,Mostly Cloudy,70,2013-01-08 15:55:00
11:55 AM,54.7,38.5,54,30.41,10.0,NE,5.8,-,N/A,,Mostly Cloudy,40,2013-01-08 16:55:00
12:55 PM,56.5,40.8,56,30.38,10.0,East,6.9,-,N/A,,Overcast,80,2013-01-08 17:55:00
1:26 PM,57.2,41.0,55,30.37,10.0,NNE,3.5,-,N/A,,Mostly Cloudy,30,2013-01-08 18:26:00
1:55 PM,57.0,41.5,56,30.36,10.0,ENE,3.5,-,N/A,,Mostly Cloudy,60,2013-01-08 18:55:00
2:55 PM,57.7,42.1,56,30.35,10.0,NNE,3.5,-,N/A,,Mostly Cloudy,20,2013-01-08 19:55:00
3:55 PM,57.7,43.0,58,30.35,10.0,ENE,4.6,-,N/A,,Overcast,60,2013-01-08 20:55:00
4:55 PM,57.6,43.0,58,30.35,10.0,Calm,Calm,-,N/A,,Mostly Cloudy,0,2013-01-08 21:55:00
5:55 PM,54.9,43.5,66,30.35,10.0,Calm,Calm,-,N/A,,Mostly Cloudy,0,2013-01-08 22:55:00
6:55 PM,51.3,43.7,75,30.38,10.0,NE,4.6,-,N/A,,Mostly Cloudy,50,2013-01-08 23:55:00
7:55 PM,54.1,43.9,68,30.38,10.0,NNE,3.5,-,N/A,,Overcast,20,2013-01-09 00:55:00
8:55 PM,54.5,43.3,66,30.39,10.0,NNE,3.5,-,N/A,,Overcast,30,2013-01-09 01:55:00
9:55 PM,53.2,43.2,69,30.38,10.0,NE,3.5,-,N/A,,Mostly Cloudy,40,2013-01-09 02:55:00
10:55 PM,52.5,43.2,70,30.39,10.0,NE,3.5,-,N/A,,Mostly Cloudy,40,2013-01-09 03:55:00
11:55 PM,51.8,43.2,72,30.38,10.0,ENE,5.8,-,N/A,,Clear,60,2013-01-09 04:55:00